User: anonymous   Login
Location: Unspecified
(0.0000°N, 0.0000°E)
Time: 16:36:52
(UTC+00:00)
Language:

TMSAT-1 - Orbit

View from above orbital plane
View from above orbital plane
View from above satellite
View from above satellite

Ground track
Ground track

The orbit data is extracted from the following two-line orbital elements,

1 25396U 98043C   17199.76917271 -.00000006 +00000-0 +15936-4 0  9991
2 25396 098.5851 143.0612 0001582 232.8966 127.1896 14.24445567988665
Epoch (UTC): 18 July 2017 18:27:36
Eccentricity: 0.0001582
inclination: 98.5851°
perigee height: 809 km
apogee height: 811 km
right ascension of ascending node: 143.0612°
argument of perigee: 232.8966°
revolutions per day: 14.24445567
mean anomaly at epoch: 127.1896°
orbit number at epoch: 98866

The dashed part of the orbit path shows where the satellite is in the earth's shadow,  

DLR